XNO212C EGSS-EDDH

Flight info

Callsign XNO212C
Flight time N/A
Altitude 37000
Route CLN P44 SOMVA DCT MAVAS DCT VALAM DCT GASTU DCT OSTOR T904 RIBSO RIBSO7A
Aircraft A20N/M-SDE2E3FGHIRWXY/LB1

Departure

Time 2026-05-05 09:15
Airport London Stansted Airport (EGSS)

Arrival

Time N/A
Airport Hamburg Helmut Schmidt Airport (EDDH)
Time Latitude Longitude Altitude Speed Heading
2026-05-05 08:47 51.88898 0.25590 355 ft 0 kts 223°
2026-05-05 08:59 51.88901 0.25595 346 ft 2 kts 224°
2026-05-05 08:59 51.88913 0.25615 352 ft 3 kts 233°
2026-05-05 08:59 51.88918 0.25626 354 ft 0 kts 238°
2026-05-05 08:59 51.88925 0.25646 352 ft 3 kts 262°
2026-05-05 09:00 51.88925 0.25659 352 ft 0 kts 278°
2026-05-05 09:00 51.88925 0.25657 352 ft 0 kts 278°
2026-05-05 09:01 51.88929 0.25620 350 ft 5 kts 278°
2026-05-05 09:01 51.88929 0.25619 346 ft 1 kts 278°
2026-05-05 09:01 51.88927 0.25643 351 ft 2 kts 279°
2026-05-05 09:01 51.88920 0.25677 350 ft 5 kts 311°
2026-05-05 09:02 51.88917 0.25681 351 ft 0 kts 311°
2026-05-05 09:05 51.88918 0.25679 347 ft 1 kts 311°
2026-05-05 09:05 51.88925 0.25667 352 ft 3 kts 314°
2026-05-05 09:05 51.88948 0.25628 346 ft 6 kts 314°
2026-05-05 09:05 51.88959 0.25610 346 ft 0 kts 314°
2026-05-05 09:07 51.88969 0.25592 353 ft 5 kts 313°
2026-05-05 09:07 51.89000 0.25540 350 ft 8 kts 313°
2026-05-05 09:07 51.89041 0.25469 351 ft 9 kts 312°
2026-05-05 09:07 51.89088 0.25385 352 ft 10 kts 313°
2026-05-05 09:08 51.89139 0.25300 346 ft 12 kts 315°
2026-05-05 09:08 51.89123 0.25194 349 ft 11 kts 223°
2026-05-05 09:08 51.89061 0.25099 351 ft 13 kts 223°
2026-05-05 09:08 51.88989 0.24990 350 ft 15 kts 223°
2026-05-05 09:09 51.88909 0.24871 346 ft 16 kts 223°
2026-05-05 09:09 51.88823 0.24737 348 ft 18 kts 221°
2026-05-05 09:09 51.88727 0.24595 349 ft 19 kts 223°
2026-05-05 09:09 51.88627 0.24446 352 ft 20 kts 221°
2026-05-05 09:10 51.88520 0.24291 349 ft 21 kts 221°
2026-05-05 09:10 51.88409 0.24122 353 ft 22 kts 224°
2026-05-05 09:10 51.88294 0.23948 346 ft 23 kts 223°
2026-05-05 09:10 51.88172 0.23764 344 ft 25 kts 224°
2026-05-05 09:11 51.88041 0.23571 352 ft 26 kts 221°
2026-05-05 09:11 51.87939 0.23420 345 ft 19 kts 225°
2026-05-05 09:11 51.87841 0.23268 351 ft 20 kts 223°
2026-05-05 09:11 51.87751 0.23131 344 ft 11 kts 223°
2026-05-05 09:12 51.87740 0.23018 352 ft 10 kts 304°
2026-05-05 09:12 51.87782 0.22938 347 ft 9 kts 298°
2026-05-05 09:12 51.87762 0.22852 354 ft 10 kts 225°
2026-05-05 09:12 51.87703 0.22770 344 ft 13 kts 224°
2026-05-05 09:13 51.87634 0.22662 344 ft 15 kts 220°
2026-05-05 09:13 51.87547 0.22541 338 ft 19 kts 221°
2026-05-05 09:13 51.87514 0.22463 337 ft 3 kts 272°
2026-05-05 09:13 51.87526 0.22410 336 ft 7 kts 302°
2026-05-05 09:14 51.87569 0.22335 336 ft 11 kts 316°
2026-05-05 09:14 51.87640 0.22262 333 ft 13 kts 348°
2026-05-05 09:14 51.87719 0.22308 334 ft 12 kts 38°
2026-05-05 09:14 51.87796 0.22421 349 ft 34 kts 43°
2026-05-05 09:15 51.88007 0.22732 334 ft 85 kts 41°
2026-05-05 09:15 51.88589 0.23609 346 ft 143 kts 43°
2026-05-05 09:15 51.89355 0.24821 794 ft 157 kts 43°
2026-05-05 09:15 51.90162 0.26120 1438 ft 172 kts 43°
2026-05-05 09:16 51.91043 0.27517 2024 ft 182 kts 48°
2026-05-05 09:16 51.91577 0.29348 2820 ft 181 kts 84°
2026-05-05 09:16 51.91275 0.31286 3689 ft 180 kts 119°
2026-05-05 09:16 51.90458 0.32781 4299 ft 188 kts 132°
2026-05-05 09:17 51.89487 0.34502 4351 ft 222 kts 127°
2026-05-05 09:17 51.88511 0.36490 4888 ft 240 kts 125°
2026-05-05 09:17 51.87498 0.38844 4774 ft 263 kts 120°
2026-05-05 09:17 51.86584 0.41395 4867 ft 262 kts 115°
2026-05-05 09:18 51.85860 0.44146 4922 ft 266 kts 105°
2026-05-05 09:18 51.85445 0.47013 4886 ft 259 kts 97°
2026-05-05 09:18 51.85252 0.49893 4855 ft 258 kts 91°
2026-05-05 09:18 51.85072 0.52784 4875 ft 266 kts 101°
2026-05-05 09:19 51.84471 0.55748 4958 ft 292 kts 110°
2026-05-05 09:19 51.83695 0.58912 5395 ft 308 kts 110°
2026-05-05 09:19 51.83072 0.62137 6496 ft 297 kts 98°
2026-05-05 09:19 51.82977 0.65390 7646 ft 284 kts 84°
2026-05-05 09:20 51.83129 0.68567 8586 ft 284 kts 85°
2026-05-05 09:20 51.83263 0.71771 9336 ft 289 kts 85°
2026-05-05 09:20 51.83391 0.75050 10066 ft 293 kts 85°
2026-05-05 09:20 51.83518 0.78386 10444 ft 310 kts 85°
2026-05-05 09:21 51.83652 0.81942 10654 ft 331 kts 86°
2026-05-05 09:21 51.83794 0.85713 11087 ft 342 kts 86°